Temperature
21 21 21 21 20 20 20 19 19 19 19 18 18 18 18 18 17 17 17 17 17 17 17 17 17 17 17 17 17 17 17 17 17 17 17 17 17 17 17 17 17 17 17
21 21 21 20 20 20 20 19 19 19 18 18 18 18 18 17 17 17 17 17 17 17 17 17 17 17 17 17 17 17 17 17 17 17 17 17 17 17 17 17 17 17 17
21 21 21 20 20 20 20 19 19 19 18 18 18 18 18 18 17 17 17 17 17 17 17 17 17 17 17 17 17 17 17 17 17 17 17 16 17 17 17 17 17 17 17
22 21 21 20 20 20 20 19 19 18 18 18 18 18 18 17 17 17 17 17 17 17 17 17 17 17 17 17 17 17 17 17 17 17 16 16 16 16 16 17 17 17 17
22 21 21 21 20 20 20 19 19 18 18 18 18 18 18 17 17 17 17 17 17 17 17 17 17 17 17 17 17 16 16 16 16 16 16 16 16 16 16 16 16 16 16
22 22 21 21 20 20 20 19 19 18 18 18 18 17 17 17 17 17 17 17 17 17 17 17 16 16 16 16 16 16 16 16 16 16 16 16 16 16 16 16 16 16 16
22 22 21 21 20 20 20 19 19 18 18 18 18 17 17 17 17 17 17 17 17 16 16 16 16 16 16 16 16 16 16 16 16 16 16 16 16 16 16 16 15 15 16
22 22 22 21 21 20 20 19 19 19 18 18 18 17 17 17 17 17 17 16 16 16 16 16 16 16 16 16 16 16 16 16 16 16 16 16 16 16 15 15 15 15 15
22 22 22 21 21 21 20 20 19 19 18 18 18 17 17 17 17 17 17 16 16 16 16 16 16 16 16 16 16 16 16 16 16 16 16 16 16 15 15 15 15 15 14
22 22 21 21 21 20 20 20 19 19 18 18 18 17 17 17 17 16 16 16 16 16 16 16 16 16 16 16 16 16 16 15 15 15 15 15 15 15 15 15 15 15 15
22 22 21 21 21 20 20 19 19 19 18 18 18 18 17 17 17 16 16 16 16 16 16 16 16 16 16 15 15 15 15 15 15 15 15 15 15 15 15 15 15 15 14
22 22 21 21 20 20 20 19 19 19 18 18 18 17 17 17 17 16 16 16 16 16 16 16 16 15 15 15 15 15 15 15 15 15 15 15 15 15 15 14 14 14 14
22 21 21 21 20 20 20 19 19 19 18 18 18 17 17 17 16 16 16 16 16 16 15 15 15 15 15 15 15 15 15 15 15 14 14 14 14 14 14 14 14 14 14
21 21 21 20 20 20 20 19 19 19 18 18 17 17 17 17 16 16 16 16 15 15 15 15 15 15 15 14 14 14 14 14 14 14 14 14 14 14 14 14 14 14 14
21 21 21 20 20 20 19 19 19 18 18 18 17 17 17 16 16 16 16 15 15 15 15 15 14 14 14 14 14 14 14 14 14 14 14 13 13 13 13 13 13 13 13
20 21 21 20 20 20 19 19 18 18 18 17 17 17 17 16 16 16 15 15 15 15 14 14 14 14 14 14 14 14 14 14 14 13 13 13 13 13 13 13 13 13 13
20 20 20 20 20 20 19 19 18 18 18 17 17 17 16 16 15 15 15 15 15 14 14 14 14 14 14 13 13 13 13 13 13 13 13 13 12 12 12 12 12 12 12
21 20 20 20 20 19 19 19 18 18 17 17 17 16 16 15 15 15 15 15 14 14 14 14 14 13 13 13 13 13 13 13 13 13 12 12 12 12 12 12 12 12 12
21 20 20 20 19 19 19 18 18 17 17 17 16 16 15 15 15 15 15 14 14 14 14 13 13 13 13 13 13 13 13 13 12 12 12 12 12 12 12 12 12 12 12
21 20 20 19 19 18 18 18 18 17 17 16 16 15 15 15 15 15 14 14 14 14 13 13 13 13 13 12 12 12 12 12 12 12 12 12 12 12 11 11 11 11 11
20 20 20 19 19 18 18 18 17 17 16 16 16 15 15 15 15 14 14 14 14 14 13 13 13 13 12 12 12 12 12 12 12 11 11 11 11 11 11 11 11 11 11
20 20 19 19 18 18 17 17 17 16 16 16 15 15 15 15 14 14 14 14 13 13 13 13 13 13 12 12 12 12 12 11 11 11 11 11 11 11 11 11 11 11 11
19 19 19 18 18 17 17 17 16 16 16 15 15 15 14 14 14 14 14 13 13 13 13 13 13 12 12 12 12 12 11 11 11 11 11 11 10 10 10 10 10 10 10
19 18 18 18 17 17 17 16 16 16 15 15 15 14 14 14 14 14 13 13 13 13 13 13 12 12 12 12 12 12 11 11 11 11 10 10 10 10 10 10 10 10 10
18 18 18 17 17 17 16 16 16 16 15 15 15 14 14 14 13 13 13 13 13 13 13 13 12 12 12 12 11 11 11 11 11 10 10 10 10 10 10 10 10 10 10
18 17 17 17 17 16 16 16 15 15 15 15 14 14 14 14 13 13 13 13 13 13 12 12 12 12 12 11 11 11 11 11 10 10 10 10 10 10 10 10 10 10 10
Wind_Speed
7 7 8 8 7 5 5 3 3 1 1 1 1 1 1 1 1 1 1 1 1 1 2 1 2 2 2 1 1 1 1 0 0 1 2 2 2 1 2 1 2 2 4
7 7 7 7 6 5 5 3 3 2 1 1 1 1 1 0 0 1 1 1 1 1 2 2 2 1 1 1 1 1 1 0 1 2 1 2 3 2 2 1 2 3 2
11 9 8 7 7 6 5 5 3 2 2 2 2 2 2 2 2 2 1 1 1 1 2 2 2 1 2 1 1 2 2 1 1 1 2 2 2 2 2 2 1 2 2
9 9 8 8 7 6 5 4 4 3 2 3 4 4 3 1 1 1 1 1 1 1 2 2 2 2 1 1 1 2 1 2 0 1 1 2 3 1 2 2 2 1 2
10 10 10 9 8 7 6 5 4 3 3 3 4 3 2 1 0 1 1 1 1 1 2 2 2 2 1 1 1 1 1 1 1 1 1 1 1 1 2 2 3 2 2
11 10 9 8 7 6 6 5 5 3 3 3 3 3 3 2 1 1 1 1 1 1 1 1 1 1 1 1 1 1 1 1 1 0 1 1 1 1 2 2 3 3 3
9 8 9 9 9 8 7 6 6 4 3 3 3 3 3 3 2 1 1 0 1 1 1 1 0 0 0 0 0 1 1 1 1 1 1 1 1 1 1 1 2 2 2
8 8 9 10 10 9 8 7 6 5 4 4 3 2 2 2 1 1 1 1 1 1 0 0 0 0 0 0 1 1 0 1 0 0 0 0 1 0 1 2 2 1 2
9 8 8 9 9 9 8 8 8 6 5 4 3 2 2 2 2 2 1 1 0 0 0 1 0 1 0 1 1 1 1 1 1 0 0 0 1 1 1 1 2 2 2
7 7 7 7 7 8 7 7 7 6 5 4 4 3 2 2 2 2 1 1 0 0 1 0 0 1 1 1 1 0 1 1 1 1 1 1 1 1 1 0 0 1 2
8 7 6 6 6 6 7 7 6 5 4 4 3 2 2 2 2 2 1 1 0 1 1 0 0 0 0 1 1 1 1 1 2 1 1 2 1 1 1 1 1 1 1
8 7 6 5 5 6 6 7 6 6 5 4 3 3 2 2 2 1 1 1 1 1 1 1 1 1 1 1 1 1 1 1 2 2 1 2 2 2 2 1 1 1 1
7 6 6 6 6 6 6 6 6 6 4 4 4 2 1 1 2 1 1 0 0 0 1 1 1 2 2 1 1 1 1 1 1 1 1 2 2 2 2 2 1 1 1
7 7 6 6 6 6 6 6 5 5 5 4 3 2 2 2 2 2 1 1 1 0 1 1 1 1 1 1 1 1 1 1 1 1 1 1 1 1 2 1 1 1 1
6 7 7 6 5 5 5 5 4 4 5 5 4 2 2 1 1 1 1 1 1 1 1 1 2 1 1 1 1 1 1 1 2 2 2 1 2 2 2 1 1 0 0
8 8 7 7 6 6 5 5 4 4 4 4 3 2 1 1 1 1 1 1 1 1 2 2 1 1 2 3 3 2 1 1 1 1 2 2 2 4 4 4 2 1 1
8 8 8 7 6 6 7 6 5 4 5 3 2 2 2 1 1 1 1 1 1 1 2 1 1 2 2 3 3 3 1 1 1 1 1 2 3 3 2 3 4 3 2
8 8 7 6 5 5 5 5 4 4 4 3 2 2 2 2 1 1 1 1 1 2 1 1 1 1 2 4 3 3 2 1 1 1 1 1 2 3 2 2 3 3 3
7 7 7 6 5 5 5 5 4 4 3 2 2 2 2 2 1 1 1 1 2 2 1 1 1 1 2 4 3 3 1 1 2 2 1 1 1 4 3 2 2 3 4
6 6 6 6 6 5 6 6 4 3 2 2 2 2 2 2 2 2 1 1 2 2 1 1 0 1 1 2 3 2 1 1 2 2 2 2 2 3 2 1 1 2 4
6 7 7 6 5 5 6 5 4 3 3 2 2 1 2 3 3 2 1 1 1 1 1 1 1 0 1 2 2 2 1 0 1 2 2 3 3 3 3 2 1 3 3
6 7 7 5 4 5 6 5 3 3 2 2 2 1 1 2 2 2 1 1 1 1 1 0 1 2 2 2 2 2 1 1 1 2 2 3 4 4 4 3 3 4 3
6 6 7 5 3 4 5 5 3 2 2 2 1 1 1 1 1 2 1 1 1 1 1 1 2 2 2 2 4 3 3 2 1 2 3 4 5 5 4 5 5 3 1
5 5 5 5 4 3 4 4 3 3 3 2 1 1 1 1 1 1 1 2 2 2 2 2 2 2 2 2 2 2 2 3 2 3 4 5 5 4 4 4 4 2 1
4 5 5 5 4 4 3 3 3 4 3 2 1 1 1 1 1 1 2 3 3 4 4 4 3 3 3 4 4 2 2 3 3 2 2 2 2 3 3 3 3 2 1
4 4 4 5 5 4 4 3 3 4 4 2 1 1 1 1 1 1 2 2 2 2 4 5 5 4 5 5 4 4 4 4 2 0 1 2 2 3 3 3 3 2 2
Wind_Direction
162 152 150 149 143 134 128 130 132 135 116 95 92 84 55 36 44 53 74 86 82 95 114 92 92 100 107 121 109 133 85 306 70 70 352 329 291 252 234 208 192 212 214
156 158 154 151 148 145 145 138 141 142 146 157 158 140 145 122 67 357 21 54 77 109 117 112 108 108 118 91 89 109 95 271 109 124 93 343 329 314 264 221 200 208 196
169 172 166 160 155 159 163 159 158 144 135 131 109 90 63 40 30 16 5 347 8 77 94 112 131 120 129 149 163 132 133 193 285 138 132 157 242 297 310 259 234 216 208
171 174 170 164 167 171 168 159 155 141 122 113 113 119 110 106 254 262 322 332 15 77 88 91 104 118 116 132 166 133 143 142 213 288 215 200 180 178 309 323 300 267 231
178 180 177 172 172 171 167 162 149 145 137 130 132 124 114 127 30 26 37 1 354 40 82 93 92 99 116 141 159 110 123 151 171 204 238 247 230 169 179 276 307 312 274
180 181 175 162 164 165 164 157 149 153 149 135 132 134 132 121 92 37 34 5 360 4 27 88 94 113 128 153 203 151 147 166 160 176 164 168 184 224 191 227 270 289 290
174 172 170 166 168 167 166 161 158 157 151 142 144 149 150 148 151 174 180 33 11 352 320 25 79 156 213 202 158 128 138 166 150 179 214 205 217 206 181 193 247 279 297
165 171 175 169 168 170 166 160 158 155 150 147 143 144 146 146 167 175 166 172 210 259 301 61 124 226 173 75 87 80 162 64 125 121 166 202 276 221 174 183 192 277 305
165 165 163 164 164 168 169 165 164 162 163 164 156 153 153 145 153 156 137 141 195 196 93 82 40 329 9 63 87 51 357 9 350 300 311 319 294 328 260 184 171 181 252
148 155 151 157 167 167 163 158 159 164 167 170 170 162 173 172 162 143 147 171 219 46 89 72 331 326 12 52 68 28 341 3 319 301 350 334 301 309 302 222 233 193 201
152 149 150 153 158 153 155 155 153 149 157 166 165 153 159 163 155 155 191 190 187 141 118 169 118 349 34 67 76 339 357 340 309 309 315 297 293 303 296 275 259 249 203
151 147 145 148 150 153 151 153 155 162 170 167 155 160 164 157 157 183 214 175 143 176 158 76 46 19 28 41 64 312 326 312 299 304 320 312 321 314 300 289 272 256 230
149 147 144 155 159 162 158 157 162 168 166 150 150 158 171 172 182 192 198 133 126 75 55 75 56 33 27 23 9 316 306 314 307 309 318 319 352 342 331 329 318 296 308
157 152 153 165 164 161 156 157 166 170 157 142 142 152 194 202 205 195 177 169 158 114 41 64 82 63 53 41 11 14 2 355 349 343 328 325 323 313 305 315 306 318 346
158 160 160 166 160 153 149 149 154 161 152 141 145 171 201 194 184 185 193 183 142 102 104 84 75 63 63 41 29 337 359 8 352 350 340 346 3 5 359 353 312 328 8
169 167 160 158 161 160 156 150 149 152 140 140 161 176 174 177 189 203 188 156 114 99 86 90 91 43 34 24 22 26 344 335 333 334 335 336 349 4 10 12 18 68 165
169 169 166 169 173 168 160 160 165 150 140 151 167 169 166 169 194 182 131 146 144 114 97 77 57 33 10 23 26 35 37 331 307 288 307 333 346 4 353 350 4 354 328
163 167 169 169 167 161 156 153 142 134 141 148 159 173 167 184 190 146 147 165 153 142 129 90 68 48 8 15 23 31 43 15 338 311 275 299 327 343 350 350 355 339 329
162 161 162 157 150 152 149 133 127 128 133 152 172 185 175 172 163 160 178 171 145 142 145 133 125 90 344 1 15 34 28 13 347 343 342 334 306 327 -0 31 353 340 332
141 137 133 125 133 148 139 128 131 133 157 185 192 195 181 166 169 174 162 155 148 156 133 94 109 160 285 335 11 28 49 12 342 335 327 334 335 337 357 11 342 322 312
136 132 128 131 144 145 134 135 144 176 197 178 158 157 169 172 169 153 144 140 133 121 101 93 343 308 292 320 349 5 78 256 291 309 311 310 327 326 324 321 262 270 294
129 133 132 133 137 136 136 143 174 197 166 141 139 167 203 199 160 145 158 160 142 128 148 184 299 299 301 315 323 332 298 267 227 264 280 294 317 320 317 308 294 299 316
137 137 138 138 144 145 147 159 196 176 143 133 169 229 235 227 176 159 173 180 179 177 202 207 240 274 292 302 310 315 314 306 274 274 288 304 311 313 309 303 303 306 302
137 139 138 143 162 172 170 179 185 162 143 159 209 221 214 256 268 213 191 191 205 206 208 210 222 250 280 293 301 304 304 313 308 304 306 310 312 310 304 313 318 306 266
148 151 153 159 170 167 170 183 172 152 153 174 197 226 223 220 246 253 236 216 224 213 200 204 204 208 252 264 251 243 266 272 273 299 321 334 334 330 327 320 308 301 304
154 154 161 168 171 169 173 180 169 158 156 166 197 214 224 224 218 233 304 317 247 241 211 207 203 220 229 248 257 257 263 271 271 76 303 306 303 295 294 299 304 298 282
Height
1523 1524 1525 1526 1526 1526 1526 1526 1526 1526 1526 1525 1525 1525 1524 1524 1524 1523 1522 1521 1520 1520 1519 1519 1519 1519 1519 1519 1519 1519 1519 1519 1519 1519 1519 1520 1520 1520 1520 1520 1521 1521 1521
1523 1523 1524 1525 1525 1526 1526 1526 1526 1526 1525 1524 1524 1524 1524 1524 1524 1523 1522 1521 1520 1519 1519 1518 1518 1518 1518 1518 1519 1519 1518 1518 1518 1518 1518 1518 1519 1518 1518 1518 1518 1519 1519
1521 1522 1523 1524 1524 1525 1525 1525 1525 1525 1524 1524 1524 1525 1524 1524 1523 1522 1521 1521 1520 1519 1518 1518 1518 1517 1517 1517 1517 1517 1517 1517 1517 1517 1517 1517 1516 1516 1516 1516 1516 1517 1517
1520 1521 1522 1523 1523 1524 1525 1525 1525 1525 1524 1524 1524 1524 1524 1523 1523 1522 1521 1520 1519 1518 1518 1517 1517 1517 1516 1516 1516 1516 1516 1516 1516 1516 1516 1516 1516 1516 1515 1515 1515 1514 1514
1518 1519 1520 1521 1522 1524 1524 1525 1524 1524 1524 1524 1524 1524 1524 1523 1523 1522 1521 1520 1519 1518 1517 1517 1516 1516 1516 1515 1515 1515 1515 1515 1514 1514 1514 1514 1514 1514 1514 1512 1512 1512 1512
1516 1518 1519 1521 1522 1523 1524 1524 1524 1524 1524 1524 1524 1524 1523 1523 1522 1521 1521 1520 1519 1518 1517 1516 1516 1515 1515 1515 1514 1514 1514 1514 1514 1513 1513 1513 1513 1512 1511 1510 1510 1509 1509
1514 1516 1518 1519 1520 1522 1522 1523 1523 1523 1523 1523 1523 1523 1523 1522 1522 1521 1520 1519 1518 1517 1516 1515 1515 1514 1514 1514 1514 1513 1513 1513 1512 1512 1512 1511 1511 1510 1510 1509 1508 1507 1507
1513 1514 1516 1518 1519 1520 1521 1521 1522 1522 1523 1523 1523 1523 1522 1522 1521 1520 1519 1519 1518 1517 1516 1515 1514 1514 1513 1513 1513 1512 1512 1512 1511 1511 1510 1510 1509 1509 1508 1507 1506 1505 1504
1512 1514 1515 1517 1518 1519 1520 1521 1521 1522 1522 1522 1522 1522 1522 1521 1520 1519 1518 1518 1517 1516 1515 1515 1514 1513 1513 1512 1512 1511 1511 1510 1510 1509 1509 1508 1508 1507 1506 1506 1505 1505 1502
1511 1513 1515 1517 1518 1519 1520 1521 1521 1521 1521 1522 1521 1521 1521 1520 1519 1519 1518 1517 1516 1515 1514 1513 1513 1512 1512 1511 1510 1509 1509 1509 1508 1508 1507 1506 1506 1505 1505 1504 1503 1503 1501
1510 1512 1513 1515 1517 1518 1519 1520 1521 1521 1521 1521 1521 1520 1520 1519 1519 1518 1517 1516 1515 1514 1513 1512 1512 1511 1510 1509 1508 1508 1507 1507 1506 1506 1505 1504 1504 1503 1502 1502 1501 1500 1499
1510 1512 1513 1515 1516 1518 1518 1519 1520 1520 1520 1520 1520 1519 1519 1518 1518 1517 1516 1516 1515 1514 1513 1512 1511 1510 1509 1508 1507 1506 1505 1505 1504 1504 1503 1502 1502 1501 1500 1499 1498 1497 1496
1510 1512 1513 1513 1515 1516 1517 1518 1519 1519 1519 1519 1519 1518 1518 1517 1517 1516 1516 1515 1514 1513 1512 1511 1510 1508 1507 1506 1505 1504 1503 1503 1502 1502 1501 1500 1500 1499 1498 1497 1496 1495 1494
1509 1510 1512 1513 1514 1515 1516 1516 1517 1517 1517 1517 1517 1517 1517 1516 1516 1515 1514 1513 1513 1512 1510 1509 1508 1507 1506 1505 1503 1503 1502 1501 1500 1500 1499 1498 1498 1497 1496 1495 1494 1493 1491
1508 1509 1510 1511 1513 1514 1515 1515 1516 1516 1516 1516 1516 1516 1516 1515 1515 1514 1513 1512 1511 1510 1509 1508 1507 1505 1504 1503 1502 1501 1500 1499 1498 1498 1497 1496 1496 1495 1494 1493 1491 1490 1489
1507 1508 1508 1510 1511 1512 1513 1514 1514 1514 1514 1515 1515 1515 1514 1514 1513 1512 1512 1511 1510 1509 1507 1506 1505 1504 1503 1501 1500 1499 1498 1497 1496 1495 1495 1494 1493 1492 1491 1490 1490 1489 1487
1505 1507 1508 1509 1510 1511 1511 1512 1513 1513 1513 1513 1514 1513 1513 1512 1512 1511 1510 1509 1508 1507 1506 1505 1504 1503 1501 1500 1499 1498 1497 1496 1494 1493 1493 1492 1491 1490 1489 1488 1488 1487 1486
1503 1505 1507 1508 1509 1510 1510 1511 1512 1512 1512 1511 1512 1512 1511 1511 1510 1509 1508 1508 1507 1506 1505 1504 1503 1501 1500 1499 1498 1496 1495 1494 1493 1491 1491 1490 1488 1488 1487 1486 1485 1484 1484
1501 1503 1505 1506 1508 1508 1509 1510 1510 1510 1511 1510 1510 1510 1509 1508 1508 1507 1506 1506 1505 1504 1503 1502 1501 1500 1499 1498 1497 1495 1494 1492 1491 1490 1489 1488 1487 1486 1485 1484 1483 1482 1481
1501 1502 1504 1505 1506 1507 1508 1508 1508 1509 1508 1508 1508 1508 1507 1506 1506 1505 1504 1504 1503 1503 1502 1501 1500 1499 1498 1497 1496 1494 1493 1491 1490 1489 1488 1487 1486 1485 1483 1482 1480 1479 1478
1500 1502 1503 1504 1505 1506 1506 1506 1507 1507 1507 1507 1506 1506 1505 1504 1504 1503 1503 1502 1502 1501 1501 1500 1499 1498 1497 1496 1495 1493 1492 1490 1489 1487 1486 1485 1484 1483 1482 1480 1479 1477 1476
1499 1500 1502 1503 1504 1504 1505 1505 1505 1505 1505 1504 1504 1503 1503 1503 1502 1502 1501 1501 1500 1500 1499 1499 1498 1497 1496 1495 1494 1492 1491 1489 1488 1486 1485 1484 1483 1481 1480 1479 1477 1476 1475
1498 1500 1501 1502 1503 1503 1503 1503 1503 1503 1503 1503 1502 1502 1501 1501 1500 1500 1499 1499 1499 1498 1497 1497 1496 1495 1495 1494 1493 1491 1490 1488 1487 1485 1484 1482 1481 1479 1478 1477 1475 1474 1472
1498 1499 1500 1501 1501 1502 1502 1502 1502 1502 1502 1501 1501 1500 1500 1499 1499 1498 1498 1497 1497 1496 1495 1495 1494 1493 1492 1492 1491 1489 1488 1487 1485 1484 1482 1481 1479 1478 1476 1474 1473 1472 1470
1497 1498 1498 1499 1499 1500 1500 1500 1500 1500 1500 1499 1499 1498 1498 1498 1497 1497 1496 1495 1495 1494 1493 1493 1492 1491 1490 1490 1489 1487 1486 1485 1484 1482 1480 1479 1477 1475 1473 1472 1470 1469 1468
1495 1496 1497 1497 1498 1498 1498 1498 1498 1498 1498 1497 1496 1496 1496 1495 1495 1494 1494 1493 1493 1493 1492 1491 1491 1490 1489 1488 1487 1486 1485 1483 1482 1480 1478 1476 1475 1473 1471 1470 1468 1467 1466